Regional Weather Roundup
Issued by NWS

Home | Current Version | Previous Version | Graphics & Text | Print | Product List | Glossary On
Versions: 1 2 3 4 5 6 7 8 9 10 11 12 13 14 15 16 17 18 19 20 21 22 23 24 25 26 27 28 29 30 31 32 33 34 35 36 37 38 39 40 41 42 43 44 45 46 47 48 49 50
000
ASUS45 KPSR 020910
RWRAZ

ARIZONA HOURLY REGIONAL WEATHER ROUNDUP
NATIONAL WEATHER SERVICE PHOENIX AZ
200 AM MST SUN AUG 02 2015

NOTE: FAIR INDICATES FEW OR NO CLOUDS BELOW 12,000 FEET WITH NO
SIGNIFICANT WEATHER AND/OR OBSTRUCTIONS TO VISIBILITY.

AZZ001>003-036-021000-
NORTHWEST ARIZONA

CITY           SKY/WX    TMP DP  RH WIND       PRES   REMARKS
BULLHEAD CITY  MOCLDY    88  57  35 CALM      29.80S
KINGMAN        PTCLDY    74  55  51 CALM      30.00S
$$

AZZ004>008-015-016-018-021000-
NORTH CENTRAL ARIZONA

CITY           SKY/WX    TMP DP  RH WIND       PRES   REMARKS
GRAND CANYON   CLOUDY    58  54  86 CALM      30.22R
WILLIAMS       CLOUDY    61  52  72 SE7       30.29S
PRESCOTT       MOCLDY    68  59  73 SE3       30.12R
FLAGSTAFF      MOCLDY    56  53  90 SW5       30.26S
PAYSON         MOCLDY    66  57  72 VRB7      30.18R
PAGE           MOCLDY    78  55  44 CALM      30.02S
$$

AZZ009>014-017-021000-
NORTHEAST ARIZONA

CITY           SKY/WX    TMP DP  RH WIND       PRES   REMARKS
WINSLOW        CLOUDY    72  55  55 S14       30.12R
SAINT JOHNS    LGT RAIN  65  56  72 SW13G21   30.20F
SHOW LOW       RAIN      57  50  77 SW14      30.28F
$$

AZZ023-021000-
GREATER PHOENIX AREA

CITY           SKY/WX    TMP DP  RH WIND       PRES   REMARKS
PHOENIX        PTCLDY    89  65  44 S10       29.80S
LUKE AFB       CLEAR     88  63  42 SW3       29.79S
DEER VALLEY    CLEAR     90  59  35 SE10      29.82S
SCOTTSDALE     CLEAR     90  61  37 SE5       29.85R
MESA-GATEWAY   PTCLDY    82  63  51 SE8       29.86F
$$

AZZ027-028-021000-
SOUTHWEST MARICOPA COUNTY AND PINAL COUNTY

CITY           SKY/WX    TMP DP  RH WIND       PRES   REMARKS
CASA GRANDE    PTCLDY    86  64  48 CALM      29.84S
GILA BEND      FAIR      86  58  37 S8        29.78S
$$

AZZ503-504-507>509-021000-
SOUTHEAST ARIZONA

CITY           SKY/WX    TMP DP  RH WIND       PRES   REMARKS
TUCSON         PTCLDY    79  63  57 SE8       29.98S
DAVIS-MONTHAN  PTCLDY    79  62  55 SE6       29.96F
NOGALES        MOCLDY    70  62  76 NE5       30.06F
SIERRA VISTA   CLOUDY    69  59  69 SE1       30.11S
DOUGLAS          N/A    N/A N/A N/A MISG      30.08S
SAFFORD        CLOUDY    78  63  59 W9        29.99S
$$

AZZ020-021-025-026-031-021000-
SOUTHWEST ARIZONA

CITY           SKY/WX    TMP DP  RH WIND       PRES   REMARKS
YUMA           CLEAR     92  61  35 W5        29.75R
$$

CAZ031-033-041-043-047-048-061-021000-
SOUTHERN CALIFORNIA

CITY           SKY/WX    TMP DP  RH WIND       PRES   REMARKS
DOWNTOWN L.A.  CLEAR     68  63  84 CALM      29.89F
L.A. AIRPORT   PTCLDY    69  63  81 CALM      29.90F
SAN DIEGO      CLOUDY    70  62  76 NE3       29.92F
BURBANK        CLEAR     69  61  75 CALM      29.91S
ONTARIO        CLEAR     69  62  78 S5        29.92S
RIVERSIDE      CLEAR     71  62  73 CALM      29.92F
PALM SPRINGS   CLEAR     87  57  35 SE5       29.79R
EL CENTRO NAS  CLEAR     85  39  19 N6        29.74F
IMPERIAL       CLEAR     89  41  18 NW6       29.72S
BLYTHE         CLEAR     90  58  33 N6        29.76S
NEEDLES        CLEAR     87  58  37 SW6       29.81R
$$

NVZ020-UTZ003-021000-
SOUTHERN NEVADA-UTAH

CITY           SKY/WX    TMP DP  RH WIND       PRES   REMARKS
LAS VEGAS      PTCLDY    81  56  42 SW6       29.87F
SALT LAKE CITY PTCLDY    69  45  41 CALM      29.97F
$$

NMZ009-TXZ055-021000-
NEW MEXICO-WEST TEXAS

CITY           SKY/WX    TMP DP  RH WIND       PRES   REMARKS
ALBUQUERQUE    MOCLDY    67  61  81 SE5       30.17F
EL PASO        MOCLDY    79  57  46 E8        30.06F
$$


........................KEY........................
SKY/WX - SKY CONDITION/WEATHER
TMP    - TEMPERATURE IN FAHRENHEIT
DP     - DEW POINT IN FAHRENHEIT
RH     - RELATIVE HUMIDITY IN PERCENT
WIND   - DIRECTION AND SPEED IN MILES PER HOUR (MPH)
VRB    - VARIABLE WIND DIRECTION
PRES   - MEAN SEA LEVEL PRESSURE IN INCHES OF MERCURY
         F - FALLING PRESSURE   R - RISING PRESSURE
         S - STEADY PRESSURE
VSB    - VISIBILITY IN MILES
HX     - HEAT INDEX IN FAHRENHEIT
WCI    - WIND CHILL INDEX IN FAHRENHEIT
TC     - TEMPERATURE IN CELSIUS WHICH IS ALSO KNOWN AS
         TEMPERATURE IN CENTIGRADE
AFB    - AIR FORCE BASE
         LUKE AFB IS LUKE AIR FORCE BASE
         DAVIS-MONTHAN IS DAVIS-MONTHAN AIR FORCE BASE
NAS    - NAVAL AIR STATION
         EL CENTRO NAS IS EL CENTRO NAVAL AIR STATION
N/A    - NOT AVAILABLE




USA.gov is the U.S. government's official web portal to all federal, state and local government web resources and services.